STARLINK-5294 (54159 NORAD) Tracking and Keplerian Element Data

This shows tracking and keplerian element data for the satellite.

Feedback or suggestion? Click here.




ElementValue
Catalog54159
NameSTARLINK-5294
Epoch Orbit383
Epoch Day325.25001157
Epoch Year2022
RAAN24.4614
Inclination53.2177
Eccentricity0.0001536
Argument of Perigee52.9117
Mean Anonmoly152.3045
Mean Motion15.57819804
Decay Rate-0.01216556
L11 54159U 22141C 22325.25001157 -.01216556 00000+0 -17899-1 0 9991
L22 54159 53.2177 24.4614 0001536 52.9117 152.3045 15.57819804 3834



Live tracking and technical data element details for STARLINK-5294 (NORAD 54159). STARLINK-5294 can be tracked NOW for your location showing map with azimuth and elevation plus other details from your city location.







IsCatalogInMostPopularTable: catalog: 54159, numindb: 4
Update: records affected: 1



GetName: 54159 STARLINK-5294

Hit Count: updated at: Mon, 28 Nov 2022 22:35:53 GMT